GW7862 Weather Reports


Display with metric or nautical units.
time (UTC)temp
F
wind
direction
speed
MPH
gust
MPH
rain 1hr
in
rain 24hr
in
rain mn
in
humidity
%
barometer
mb
20260901104024 72 0 0.0 0.0 0.00 0.00 0.00 89 1016.1
20260901103525 72 0 0.0 0.0 0.00 0.00 0.00 89 1016.1
20260901103042 72 0 0.0 0.0 0.00 0.00 0.00 89 1016.1
20260901102524 72 0 0.0 2.0 0.00 0.00 0.00 89 1016.1
20260901102025 72 0 0.0 2.0 0.00 0.00 0.00 89 1016.1
20260901101542 72 227 0.0 1.0 0.00 0.00 0.00 89 1016.1
20260901101023 72 0 0.0 1.0 0.00 0.00 0.00 89 1016.0
20260901100525 72 0 0.0 1.0 0.00 0.00 0.00 89 1016.1
20260901100052 72 0 0.0 2.0 0.00 0.00 0.00 89 1016.0
20260901095523 72 0 0.0 2.0 0.00 0.00 0.00 89 1016.0
20260901095025 72 0 0.0 2.0 0.00 0.00 0.00 89 1016.0
20260901094544 72 227 0.0 1.0 0.00 0.00 0.00 89 1015.9
20260901094025 72 0 0.0 3.0 0.00 0.00 0.00 89 1015.8
20260901093525 72 0 0.0 3.0 0.00 0.00 0.00 89 1015.8
20260901093042 72 0 0.0 0.0 0.00 0.00 0.00 89 1016.0
20260901092525 72 0 0.0 1.0 0.00 0.00 0.00 88 1016.0
20260901092024 72 0 0.0 2.0 0.00 0.00 0.00 88 1016.0
20260901091549 72 0 0.0 2.0 0.00 0.00 0.00 88 1016.1
20260901091023 72 0 0.0 0.0 0.00 0.00 0.00 88 1016.1
20260901090525 72 0 0.0 0.0 0.00 0.00 0.00 88 1016.2
20260901090043 72 0 0.0 0.0 0.00 0.00 0.00 88 1016.2
20260901085525 72 0 0.0 0.0 0.00 0.00 0.00 88 1016.1
20260901085023 72 0 0.0 0.0 0.00 0.00 0.00 88 1016.2
20260901084554 72 0 0.0 0.0 0.00 0.00 0.00 88 1016.2
20260901084024 72 0 0.0 1.0 0.00 0.00 0.00 88 1016.3
20260901083525 72 0 0.0 2.0 0.00 0.00 0.00 88 1016.3
20260901083042 72 0 0.0 2.0 0.00 0.00 0.00 88 1016.3
20260901082523 72 0 0.0 3.0 0.00 0.00 0.00 88 1016.3
20260901082024 72 0 0.0 3.0 0.00 0.00 0.00 88 1016.3
20260901081553 72 234 0.0 3.0 0.00 0.00 0.00 88 1016.3
20260901081024 72 0 0.0 3.0 0.00 0.00 0.00 88 1016.3
20260901080524 72 0 0.0 3.0 0.00 0.00 0.00 88 1016.2
20260901080053 72 198 0.0 1.0 0.00 0.00 0.00 88 1016.3
20260901075524 72 0 0.0 1.0 0.00 0.00 0.00 88 1016.3
20260901075024 72 0 0.0 1.0 0.00 0.00 0.00 88 1016.3
20260901074554 72 197 0.0 2.0 0.00 0.00 0.00 88 1016.2
20260901074027 72 0 0.0 3.0 0.00 0.00 0.00 88 1016.2
20260901073525 72 0 0.0 4.0 0.00 0.00 0.00 88 1016.2
20260901073041 72 196 1.0 6.0 0.00 0.00 0.00 88 1016.2
20260901072528 72 0 0.0 6.0 0.00 0.00 0.00 88 1016.2
20260901072025 72 209 2.0 6.0 0.00 0.00 0.00 87 1016.2
20260901071549 72 0 0.0 4.0 0.00 0.00 0.00 87 1016.5
20260901071024 72 197 1.0 6.0 0.00 0.00 0.00 87 1016.4
20260901070525 72 197 2.0 7.0 0.00 0.00 0.00 87 1016.4
20260901070046 72 0 0.0 7.0 0.00 0.00 0.00 87 1016.3
20260901065525 71 195 0.0 4.0 0.00 0.00 0.00 87 1016.2
20260901065027 71 165 2.0 5.0 0.00 0.00 0.00 87 1016.2
20260901064547 71 215 2.0 5.0 0.00 0.00 0.00 87 1016.3
20260901064023 71 188 0.0 5.0 0.00 0.00 0.00 87 1016.4
20260901063525 71 0 1.0 5.0 0.00 0.00 0.00 87 1016.4
20260901063057 71 0 1.0 5.0 0.00 0.00 0.00 87 1016.4
20260901062524 71 0 1.0 5.0 0.00 0.00 0.00 87 1016.4
20260901062025 71 225 2.0 5.0 0.00 0.00 0.00 87 1016.5
20260901061549 71 149 0.0 5.0 0.00 0.00 0.00 87 1016.6
20260901061025 71 0 1.0 3.0 0.00 0.00 0.00 87 1016.5
20260901060525 71 0 0.0 0.0 0.00 0.00 0.00 88 1016.7
20260901060041 71 0 0.0 0.0 0.00 0.00 0.00 87 1016.6
20260901055523 71 0 0.0 0.0 0.00 0.00 0.00 87 1016.8
20260901055026 71 0 0.0 0.0 0.00 0.00 0.00 87 1016.8
20260901054546 71 0 0.0 0.0 0.00 0.00 0.00 87 1016.9
20260901054024 71 0 0.0 3.0 0.00 0.00 0.00 87 1017.0
20260901053525 71 0 0.0 4.0 0.00 0.00 0.00 86 1016.8
20260901053052 71 209 0.0 4.0 0.00 0.00 0.00 86 1016.8
20260901052524 71 207 0.0 4.0 0.00 0.00 0.00 85 1016.9
20260901052025 71 201 0.0 5.0 0.00 0.00 0.00 85 1017.0
20260901051546 71 205 1.0 5.0 0.00 0.00 0.00 84 1017.0
20260901051024 72 205 0.0 6.0 0.00 0.00 0.00 83 1017.0
20260901050525 72 221 1.0 6.0 0.00 0.00 0.00 83 1017.0
20260901050046 72 217 0.0 5.0 0.00 0.00 0.00 83 1017.0
20260901045527 71 0 1.0 5.0 0.00 0.00 0.00 84 1017.0
20260901045024 71 213 0.0 3.0 0.00 0.00 0.00 83 1017.1
20260901044547 72 209 1.0 4.0 0.00 0.00 0.00 83 1017.1
20260901044024 72 0 1.0 5.0 0.00 0.00 0.00 83 1017.0
20260901043524 72 219 1.0 5.0 0.00 0.00 0.00 83 1017.0
20260901043051 72 153 1.0 4.0 0.00 0.00 0.00 83 1017.1
20260901042525 72 215 1.0 4.0 0.00 0.00 0.00 84 1017.0
20260901042025 72 0 1.0 6.0 0.00 0.00 0.00 83 1017.0
20260901041544 72 202 1.0 6.0 0.00 0.00 0.00 83 1017.2
20260901041025 72 155 1.0 6.0 0.00 0.00 0.00 83 1017.1
20260901040525 72 207 1.0 7.0 0.00 0.00 0.00 83 1017.1
20260901040042 72 214 2.0 7.0 0.00 0.00 0.00 83 1017.1
20260901035525 71 211 1.0 3.0 0.00 0.00 0.00 83 1017.0
20260901035027 72 0 0.0 5.0 0.00 0.00 0.00 83 1017.0
20260901034555 71 0 0.0 5.0 0.00 0.00 0.00 83 1017.0
20260901034024 72 0 1.0 3.0 0.00 0.00 0.00 83 1017.1
20260901033525 72 215 0.0 3.0 0.00 0.00 0.00 83 1017.1
20260901033105 72 214 1.0 3.0 0.00 0.00 0.00 83 1017.2
20260901032525 71 0 1.0 4.0 0.00 0.00 0.00 83 1017.2
20260901032024 71 233 0.0 4.0 0.00 0.00 0.00 84 1017.2
20260901031542 71 0 0.0 3.0 0.00 0.00 0.00 83 1017.2
20260901031025 71 0 0.0 3.0 0.00 0.00 0.00 84 1017.1
20260901030525 71 0 0.0 4.0 0.00 0.00 0.00 84 1017.3
20260901030040 71 204 1.0 4.0 0.00 0.00 0.00 84 1017.4
20260901025529 71 0 0.0 2.0 0.00 0.02 0.00 84 1017.5
20260901025029 71 0 0.0 2.0 0.00 0.02 0.00 83 1017.6
20260901024550 71 0 0.0 3.0 0.00 0.02 0.00 83 1017.6
20260901024026 72 0 0.0 4.0 0.00 0.02 0.00 82 1017.8
20260901023526 71 0 0.0 5.0 0.00 0.02 0.00 82 1017.7
20260901023052 71 221 1.0 6.0 0.00 0.02 0.00 83 1017.9
20260901022528 71 229 1.0 6.0 0.00 0.02 0.00 82 1017.8
20260901022027 71 0 0.0 0.0 0.00 0.02 0.00 83 1017.7
20260901021549 71 0 0.0 2.0 0.00 0.02 0.00 83 1017.8
20260901021024 71 0 0.0 2.0 0.00 0.02 0.00 82 1017.9
20260901020526 71 0 0.0 3.0 0.00 0.02 0.00 82 1017.7
20260901020043 71 0 0.0 3.0 0.00 0.02 0.00 83 1017.8
20260901015528 71 0 0.0 3.0 0.00 0.04 0.00 83 1017.8
20260901015024 71 0 0.0 0.0 0.00 0.04 0.00 83 1017.9
20260901014541 71 0 0.0 0.0 0.00 0.04 0.00 83 1017.9
20260901014024 71 0 0.0 0.0 0.00 0.04 0.00 83 1017.9
20260901013525 71 0 0.0 0.0 0.00 0.04 0.00 83 1017.9
20260901013045 71 0 0.0 0.0 0.00 0.04 0.00 83 1018.0
20260901012525 71 0 0.0 0.0 0.00 0.04 0.00 83 1017.9
20260901012024 71 0 0.0 0.0 0.00 0.04 0.00 83 1018.0
20260901011540 71 0 0.0 4.0 0.00 0.04 0.00 83 1018.1
20260901011025 71 0 0.0 4.0 0.00 0.04 0.00 82 1018.0
20260901010526 71 0 0.0 3.0 0.00 0.04 0.00 82 1018.0
20260901010053 71 0 0.0 1.0 0.00 0.04 0.00 82 1017.9
20260901005527 71 0 0.0 4.0 0.00 0.04 0.00 82 1017.9
20260901005025 71 0 0.0 4.0 0.00 0.04 0.00 82 1017.7
20260901004600 71 196 1.0 4.0 0.00 0.04 0.00 82 1017.8
20260901004024 71 219 1.0 4.0 0.00 0.04 0.00 82 1017.8
20260901003524 71 223 1.0 4.0 0.00 0.04 0.00 82 1017.9
20260901003046 71 0 0.0 3.0 0.00 0.04 0.00 82 1017.8
20260901002525 71 0 0.0 4.0 0.00 0.04 0.00 82 1017.9
20260901002025 71 0 1.0 4.0 0.00 0.04 0.00 81 1018.0
20260901001548 71 198 1.0 4.0 0.00 0.04 0.00 81 1017.9
20260901001025 71 0 0.0 2.0 0.00 0.04 0.00 82 1018.0
20260901000525 71 207 0.0 2.0 0.00 0.04 0.00 81 1018.0
20260831235524 71 0 0.0 3.0 0.00 0.04 0.00 81 1017.9
20260831235026 71 0 0.0 3.0 0.00 0.04 0.00 81 1018.0
20260831234540 71 0 0.0 3.0 0.00 0.04 0.00 81 1018.0
20260831234026 71 207 1.0 2.0 0.00 0.04 0.00 81 1018.1
20260831233524 71 0 0.0 2.0 0.00 0.04 0.00 81 1018.1
20260831233051 72 0 0.0 2.0 0.00 0.04 0.00 80 1018.1
20260831232526 72 0 0.0 1.0 0.00 0.04 0.00 80 1018.2
20260831232026 72 0 0.0 1.0 0.00 0.04 0.00 80 1018.1
20260831231546 71 0 0.0 1.0 0.00 0.04 0.00 79 1018.2
20260831231025 72 0 0.0 1.0 0.00 0.04 0.00 79 1018.2
20260831230525 72 0 0.0 1.0 0.00 0.04 0.00 80 1018.2
20260831230044 72 0 0.0 1.0 0.00 0.04 0.00 80 1018.2
20260831225525 72 205 0.0 3.0 0.00 0.04 0.00 79 1018.2
20260831225025 72 0 0.0 4.0 0.00 0.04 0.00 80 1018.2
20260831224542 72 0 0.0 4.0 0.00 0.04 0.00 78 1018.3
20260831224025 72 155 0.0 3.0 0.00 0.04 0.00 79 1018.2
20260831223527 72 0 0.0 3.0 0.00 0.04 0.00 79 1018.1
20260831223040 72 0 0.0 3.0 0.00 0.04 0.00 79 1018.2
20260831222524 73 0 0.0 2.0 0.00 0.04 0.00 78 1018.2
20260831222025 72 0 0.0 2.0 0.00 0.04 0.00 79 1018.1
20260831221547 73 0 0.0 2.0 0.00 0.04 0.00 79 1018.2
20260831221024 73 0 0.0 3.0 0.00 0.04 0.00 78 1018.4
20260831220525 73 0 0.0 3.0 0.00 0.04 0.00 77 1018.4
20260831220049 73 0 0.0 4.0 0.00 0.04 0.00 78 1018.3
20260831215525 73 0 0.0 4.0 0.00 0.04 0.00 78 1018.4
20260831215029 73 0 1.0 4.0 0.00 0.04 0.00 78 1018.3
20260831214545 73 0 0.0 3.0 0.00 0.04 0.00 76 1018.4
20260831214024 73 0 0.0 3.0 0.00 0.04 0.00 77 1018.3
20260831213525 73 242 0.0 5.0 0.00 0.04 0.00 78 1018.4
20260831213042 73 201 1.0 5.0 0.00 0.04 0.00 78 1018.5
20260831212525 73 185 0.0 5.0 0.00 0.04 0.00 78 1018.4
20260831212024 73 208 1.0 5.0 0.00 0.04 0.00 77 1018.6
20260831211548 73 0 0.0 3.0 0.00 0.04 0.00 76 1018.7
20260831211024 74 0 0.0 3.0 0.00 0.04 0.00 77 1018.7
20260831210524 74 0 0.0 4.0 0.00 0.04 0.00 75 1018.6
20260831210046 74 200 1.0 4.0 0.00 0.04 0.00 76 1018.8
20260831205524 74 0 0.0 4.0 0.00 0.04 0.00 79 1018.6
20260831205025 73 216 1.0 8.0 0.00 0.04 0.00 77 1018.6
20260831204544 73 0 1.0 8.0 0.00 0.04 0.00 77 1018.6
20260831204024 73 226 2.0 8.0 0.00 0.04 0.00 77 1018.6
20260831203524 73 212 0.0 6.0 0.00 0.04 0.00 77 1018.6
20260831203043 73 221 2.0 6.0 0.00 0.04 0.00 76 1018.7
20260831202525 73 192 1.0 6.0 0.00 0.04 0.00 76 1018.8
20260831202024 73 209 1.0 7.0 0.00 0.04 0.00 77 1018.8
20260831201547 73 0 1.0 7.0 0.00 0.04 0.00 77 1019.1
20260831201025 73 212 2.0 7.0 0.00 0.04 0.00 76 1019.1
20260831200524 73 192 1.0 5.0 0.00 0.04 0.00 76 1019.1
20260831200050 73 189 0.0 4.0 0.00 0.04 0.00 76 1019.3
20260831195524 73 194 0.0 5.0 0.00 0.04 0.00 77 1019.3
20260831195024 73 218 0.0 5.0 0.00 0.04 0.00 76 1019.4
20260831194555 73 215 2.0 6.0 0.00 0.04 0.00 76 1019.5
20260831194025 73 228 1.0 6.0 0.00 0.04 0.00 74 1019.5
20260831193525 73 217 0.0 4.0 0.00 0.04 0.00 74 1019.5
20260831193046 73 203 0.0 4.0 0.00 0.04 0.00 73 1019.5
20260831192526 73 225 1.0 5.0 0.00 0.04 0.00 71 1019.4
20260831192025 74 208 1.0 5.0 0.00 0.04 0.00 73 1019.5
20260831191549 74 0 1.0 6.0 0.00 0.04 0.00 72 1019.5
20260831191025 74 0 0.0 6.0 0.00 0.04 0.00 74 1019.7
20260831190524 75 196 1.0 6.0 0.00 0.04 0.00 70 1019.7
20260831190107 75 293 1.0 5.0 0.00 0.04 0.00 70 1019.7
20260831185525 75 0 2.0 5.0 0.00 0.04 0.00 70 1019.7
20260831185029 76 138 1.0 7.0 0.00 0.04 0.00 68 1019.6
20260831184543 75 215 1.0 7.0 0.00 0.04 0.00 72 1019.7
20260831184028 76 119 1.0 9.0 0.00 0.04 0.00 70 1019.6
20260831183527 76 209 1.0 9.0 0.00 0.04 0.00 69 1019.5
20260831183042 77 221 3.0 7.0 0.00 0.04 0.00 68 1019.6
20260831182525 79 223 1.0 5.0 0.00 0.04 0.00 65 1019.7
20260831182025 79 180 1.0 5.0 0.00 0.04 0.00 65 1019.7
20260831181550 78 245 1.0 5.0 0.00 0.04 0.00 68 1019.5